Location: Dompnac
(44.5644°N, 4.1026°E)
Time: 10:06:55
(UTC+00:00)

Cosmos 1536 Rocket - Pass Details

Date: 19 September 2020
Orbit: 606 x 632 km, 82.5° (Epoch: 29 October)

Event Time Altitude Azimuth Distance (km) Brightness Sun altitude
Rises 18:49:45 0° 359° (N) 2,916 7.2 -12.1°
Reaches altitude 10° 18:52:08 10° 8° (N) 2,009 6.3 -12.5°
Maximum altitude 18:56:14 35° 75° (ENE) 1,014 4.2 -13.2°
Enters shadow 18:58:59 18° 132° (SE) 1,544 5.1 -13.6°
